• In Hungary
  • List of Countries
  • For 7 days
  • Water Temperature
  • Satellite Maps
  • Weather Map
  • News
  • Weather Widgets
  • user-avatar
    Login

    Hourly Weather Chumal'ovo

    Today, 21 May, Monday

    Time Temperature Precipitation Wind Pressure Humidity
    00:00 +14°C° 0 mm 1 mps 734 mmHg 79%
    01:00 +14°C° 0 mm 1 mps 734 mmHg 81%
    02:00 +13°C° 0 mm 1 mps 734 mmHg 82%
    03:00 +13°C° 0 mm 1 mps 734 mmHg 84%
    04:00 +13°C° 0 mm 1 mps 734 mmHg 83%
    05:00 +13°C° 0 mm 2 mps 734 mmHg 81%
    06:00 +13°C° 0 mm 1 mps 734 mmHg 81%
    07:00 +13°C° 0 mm 1 mps 735 mmHg 88%
    08:00 +15°C° 0 mm 1 mps 735 mmHg 91%
    09:00 +16°C° 0 mm 1 mps 735 mmHg 87%
    10:00 +19°C° 0 mm 1 mps 735 mmHg 86%
    11:00 +19°C° 0 mm 2 mps 735 mmHg 82%
    12:00 +16°C° 0.5 mm 7 mps 735 mmHg 92%
    13:00 +18°C° 0.7 mm 3 mps 735 mmHg 80%
    14:00 +19°C° 0 mm 5 mps 734 mmHg 77%
    15:00 +20°C° 0 mm 3 mps 734 mmHg 69%
    16:00 +20°C° 0 mm 4 mps 733 mmHg 74%
    17:00 +20°C° 0 mm 4 mps 733 mmHg 75%
    18:00 +20°C° 0 mm 4 mps 733 mmHg 77%
    19:00 +19°C° 0 mm 4 mps 732 mmHg 81%
    20:00 +18°C° 0 mm 4 mps 732 mmHg 84%
    21:00 +16°C° 0 mm 5 mps 732 mmHg 83%
    22:00 +15°C° 0 mm 4 mps 732 mmHg 83%
    23:00 +15°C° 0 mm 4 mps 732 mmHg 83%

    Tomorrow, 22 May, Tuesday

    Time Temperature Precipitation Wind Pressure Humidity
    00:00 +14°C° 0 mm 4 mps 732 mmHg 83%
    01:00 +14°C° 0 mm 4 mps 732 mmHg 83%
    02:00 +14°C° 0 mm 5 mps 732 mmHg 83%
    03:00 +14°C° 0 mm 5 mps 732 mmHg 83%
    04:00 +14°C° 0 mm 4 mps 732 mmHg 82%
    05:00 +13°C° 0 mm 4 mps 732 mmHg 82%
    06:00 +14°C° 0 mm 5 mps 732 mmHg 83%
    07:00 +15°C° 0 mm 5 mps 732 mmHg 84%
    08:00 +15°C° 0 mm 5 mps 732 mmHg 86%
    09:00 +16°C° 0 mm 6 mps 733 mmHg 87%
    10:00 +17°C° 0 mm 6 mps 733 mmHg 88%
    11:00 +17°C° 0.2 mm 6 mps 734 mmHg 87%
    12:00 +15°C° 0.6 mm 4 mps 734 mmHg 95%
    13:00 +16°C° 0.4 mm 5 mps 732 mmHg 89%
    14:00 +19°C° 0 mm 4 mps 732 mmHg 85%
    15:00 +21°C° 0 mm 5 mps 731 mmHg 85%
    16:00 +22°C° 0 mm 5 mps 731 mmHg 80%
    17:00 +22°C° 0 mm 4 mps 731 mmHg 82%
    18:00 +22°C° 0 mm 4 mps 731 mmHg 85%
    19:00 +21°C° 0 mm 4 mps 731 mmHg 89%
    20:00 +20°C° 0 mm 4 mps 731 mmHg 92%
    21:00 +19°C° 0 mm 3 mps 732 mmHg 94%
    22:00 +19°C° 0 mm 3 mps 732 mmHg 96%
    23:00 +18°C° 0 mm 3 mps 732 mmHg 97%

    Day after tomorrow, 23 May, Wednesday

    Time Temperature Precipitation Wind Pressure Humidity
    00:00 +18°C° 0 mm 3 mps 732 mmHg 96%
    01:00 +18°C° 0 mm 3 mps 732 mmHg 96%
    02:00 +18°C° 0 mm 3 mps 732 mmHg 96%
    03:00 +17°C° 0 mm 3 mps 733 mmHg 96%
    04:00 +17°C° 0 mm 3 mps 733 mmHg 96%
    05:00 +16°C° 0 mm 3 mps 733 mmHg 95%
    06:00 +17°C° 0 mm 4 mps 733 mmHg 94%
    07:00 +17°C° 0 mm 4 mps 734 mmHg 91%
    08:00 +18°C° 0 mm 3 mps 734 mmHg 90%
    09:00 +19°C° 0 mm 3 mps 734 mmHg 87%
    10:00 +20°C° 0 mm 2 mps 734 mmHg 85%
    11:00 +22°C° 0 mm 1 mps 734 mmHg 83%
    12:00 +23°C° 0 mm 2 mps 734 mmHg 84%
    13:00 +24°C° 0 mm 1 mps 733 mmHg 80%
    14:00 +24°C° 0 mm 1 mps 733 mmHg 79%
    15:00 +23°C° 0 mm 0 mps 733 mmHg 76%
    16:00 +25°C° 0 mm 1 mps 732 mmHg 72%
    17:00 +25°C° 0 mm 1 mps 732 mmHg 74%
    18:00 +24°C° 0 mm 1 mps 732 mmHg 82%
    19:00 +22°C° 0 mm 0 mps 732 mmHg 86%
    20:00 +22°C° 0 mm 0 mps 732 mmHg 86%
    21:00 +23°C° 0 mm 1 mps 732 mmHg 86%
    22:00 +21°C° 0 mm 2 mps 732 mmHg 84%
    23:00 +21°C° 0 mm 2 mps 732 mmHg 80%

    24 May, Thursday

    Time Temperature Precipitation Wind Pressure Humidity
    00:00 +20°C° 0 mm 2 mps 732 mmHg 81%
    01:00 +19°C° 0 mm 2 mps 732 mmHg 86%
    02:00 +19°C° 0 mm 3 mps 732 mmHg 89%
    03:00 +18°C° 0 mm 2 mps 732 mmHg 88%
    04:00 +18°C° 0 mm 2 mps 732 mmHg 89%
    05:00 +17°C° 0 mm 2 mps 732 mmHg 90%
    06:00 +19°C° 0 mm 1 mps 732 mmHg 89%
    07:00 +20°C° 0 mm 1 mps 732 mmHg 90%
    08:00 +21°C° 0 mm 1 mps 732 mmHg 88%
    09:00 +23°C° 0 mm 1 mps 733 mmHg 85%
    10:00 +24°C° 0 mm 3 mps 733 mmHg 78%
    11:00 +25°C° 0 mm 4 mps 732 mmHg 77%
    12:00 +25°C° 0 mm 5 mps 732 mmHg 76%
    13:00 +25°C° 0 mm 5 mps 732 mmHg 75%
    14:00 +24°C° 0 mm 6 mps 732 mmHg 77%

    25 May, Friday

    Time Temperature Precipitation Wind Pressure Humidity

    26 May, Saturday

    Time Temperature Precipitation Wind Pressure Humidity
    Show more